NVA1003 SAOS-SAZN

Flight info

Callsign NVA1003
Flight time 2h 12m
Altitude 17999
Route SRC DCT KOTOG KOTOG2Q
Aircraft B190/M-SDFGRY/S

Departure

Time 2026-05-07 11:26
Airport Valle Del Conlara International Airport (SAOS)

Arrival

Time 2026-05-07 13:38
Airport Presidente Perón International Airport (SAZN)
Time Latitude Longitude Altitude Speed Heading
2026-05-07 11:07 -32.37905 -65.18079 2029 ft 0 kts 200°
2026-05-07 11:20 -32.37908 -65.18080 2029 ft 7 kts 197°
2026-05-07 11:21 -32.37929 -65.18086 2030 ft 1 kts 191°
2026-05-07 11:21 -32.37976 -65.18111 2030 ft 9 kts 235°
2026-05-07 11:21 -32.37976 -65.18199 2028 ft 12 kts 286°
2026-05-07 11:21 -32.37949 -65.18305 2026 ft 14 kts 284°
2026-05-07 11:22 -32.37973 -65.18403 2024 ft 12 kts 194°
2026-05-07 11:22 -32.38059 -65.18433 2025 ft 15 kts 198°
2026-05-07 11:22 -32.38206 -65.18489 2027 ft 28 kts 198°
2026-05-07 11:22 -32.38388 -65.18555 2026 ft 25 kts 196°
2026-05-07 11:23 -32.38587 -65.18630 2027 ft 34 kts 198°
2026-05-07 11:23 -32.38831 -65.18720 2025 ft 34 kts 197°
2026-05-07 11:23 -32.39030 -65.18794 2025 ft 26 kts 198°
2026-05-07 11:23 -32.39178 -65.18849 2026 ft 19 kts 199°
2026-05-07 11:24 -32.39296 -65.18893 2025 ft 16 kts 197°
2026-05-07 11:24 -32.39418 -65.18938 2025 ft 16 kts 186°
2026-05-07 11:24 -32.39514 -65.18945 2027 ft 9 kts 223°
2026-05-07 11:24 -32.39483 -65.18961 2026 ft 8 kts
2026-05-07 11:25 -32.39310 -65.18897 2025 ft 51 kts 19°
2026-05-07 11:25 -32.38751 -65.18697 2026 ft 115 kts 18°
2026-05-07 11:25 -32.37822 -65.18356 2047 ft 156 kts 12°
2026-05-07 11:25 -32.36739 -65.17962 2298 ft 166 kts 13°
2026-05-07 11:26 -32.35657 -65.17621 2845 ft 158 kts 13°
2026-05-07 11:26 -32.34592 -65.17222 3264 ft 160 kts 13°
2026-05-07 11:26 -32.33505 -65.16951 3712 ft 155 kts 355°
2026-05-07 11:26 -32.32421 -65.16846 4087 ft 157 kts 351°
2026-05-07 11:27 -32.31469 -65.17328 4403 ft 149 kts 304°
2026-05-07 11:27 -32.31289 -65.18507 4507 ft 158 kts 245°
2026-05-07 11:27 -32.32217 -65.19176 4778 ft 167 kts 195°
2026-05-07 11:27 -32.33217 -65.19259 5684 ft 133 kts 182°
2026-05-07 11:28 -32.34223 -65.19102 5839 ft 153 kts 177°
2026-05-07 11:28 -32.35306 -65.18903 6113 ft 160 kts 177°
2026-05-07 11:28 -32.36418 -65.18706 6371 ft 167 kts 177°
2026-05-07 11:28 -32.37607 -65.18612 6624 ft 167 kts 200°
2026-05-07 11:29 -32.38636 -65.19206 6914 ft 164 kts 219°
2026-05-07 11:29 -32.39528 -65.20036 7163 ft 167 kts 227°
2026-05-07 11:29 -32.40393 -65.21062 7276 ft 177 kts 232°
2026-05-07 11:29 -32.41238 -65.22186 7388 ft 185 kts 234°
2026-05-07 11:30 -32.42089 -65.23371 7497 ft 191 kts 234°
2026-05-07 11:30 -32.42939 -65.24581 7602 ft 195 kts 235°
2026-05-07 11:30 -32.43834 -65.25870 7708 ft 199 kts 235°
2026-05-07 11:30 -32.44727 -65.27160 7810 ft 202 kts 235°
2026-05-07 11:31 -32.45617 -65.28449 7911 ft 205 kts 235°
2026-05-07 11:31 -32.46532 -65.29777 8013 ft 207 kts 235°
2026-05-07 11:31 -32.47460 -65.31123 8114 ft 208 kts 235°
2026-05-07 11:31 -32.48379 -65.32458 8214 ft 209 kts 235°
2026-05-07 11:32 -32.50223 -65.35197 8393 ft 215 kts 230°
2026-05-07 11:32 -32.51198 -65.36591 8500 ft 219 kts 229°
2026-05-07 11:32 -32.52193 -65.38007 8607 ft 221 kts 230°
2026-05-07 11:33 -32.53189 -65.39442 8713 ft 223 kts 230°
2026-05-07 11:33 -32.54216 -65.40906 8819 ft 225 kts 230°
2026-05-07 11:33 -32.55244 -65.42355 8924 ft 226 kts 230°
2026-05-07 11:33 -32.56278 -65.43806 9029 ft 226 kts 230°
2026-05-07 11:34 -32.57309 -65.45255 9132 ft 227 kts 230°
2026-05-07 11:34 -32.58343 -65.46707 9235 ft 227 kts 230°
2026-05-07 11:34 -32.59385 -65.48174 9339 ft 228 kts 230°
2026-05-07 11:34 -32.60432 -65.49646 9443 ft 228 kts 230°
2026-05-07 11:35 -32.61460 -65.51092 9545 ft 228 kts 231°
2026-05-07 11:35 -32.62500 -65.52556 9648 ft 228 kts 231°
2026-05-07 11:35 -32.63535 -65.54015 9750 ft 227 kts 231°
2026-05-07 11:35 -32.64585 -65.55496 9854 ft 227 kts 231°
2026-05-07 11:36 -32.65620 -65.56956 9957 ft 227 kts 231°
2026-05-07 11:36 -32.66664 -65.58427 10061 ft 227 kts 231°
2026-05-07 11:36 -32.67680 -65.59860 10162 ft 227 kts 231°
2026-05-07 11:36 -32.68719 -65.61327 10266 ft 227 kts 231°
2026-05-07 11:37 -32.69729 -65.62818 10371 ft 226 kts 233°
2026-05-07 11:37 -32.70697 -65.64340 10475 ft 226 kts 235°
2026-05-07 11:37 -32.71662 -65.65865 10577 ft 226 kts 234°
2026-05-07 11:37 -32.72635 -65.67342 10677 ft 226 kts 233°
2026-05-07 11:38 -32.73637 -65.68820 10778 ft 225 kts 233°
2026-05-07 11:38 -32.74638 -65.70270 10878 ft 225 kts 233°
2026-05-07 11:38 -32.75647 -65.71719 10979 ft 225 kts 232°
2026-05-07 11:38 -32.76652 -65.73155 11079 ft 224 kts 232°
2026-05-07 11:39 -32.77664 -65.74597 11180 ft 224 kts 232°
2026-05-07 11:39 -32.78674 -65.76032 11281 ft 224 kts 232°
2026-05-07 11:39 -32.79674 -65.77451 11382 ft 223 kts 233°
2026-05-07 11:39 -32.80676 -65.78874 11483 ft 223 kts 233°
2026-05-07 11:40 -32.81684 -65.80304 11584 ft 223 kts 233°
2026-05-07 11:40 -32.82674 -65.81710 11684 ft 222 kts 233°
2026-05-07 11:40 -32.83684 -65.83142 11787 ft 222 kts 233°
2026-05-07 11:40 -32.84672 -65.84547 11888 ft 221 kts 233°
2026-05-07 11:41 -32.85679 -65.85976 11990 ft 221 kts 233°
2026-05-07 11:41 -32.86665 -65.87377 12091 ft 221 kts 233°
2026-05-07 11:41 -32.87660 -65.88792 12193 ft 220 kts 233°
2026-05-07 11:41 -32.88652 -65.90202 12295 ft 220 kts 233°
2026-05-07 11:42 -32.89643 -65.91611 12398 ft 219 kts 233°
2026-05-07 11:42 -32.90623 -65.93005 12499 ft 219 kts 233°
2026-05-07 11:42 -32.91604 -65.94402 12601 ft 219 kts 233°
2026-05-07 11:42 -32.92582 -65.95795 12703 ft 218 kts 233°
2026-05-07 11:43 -32.93567 -65.97195 12806 ft 218 kts 233°
2026-05-07 11:43 -32.94544 -65.98587 12908 ft 217 kts 233°
2026-05-07 11:43 -32.95517 -65.99975 13011 ft 217 kts 234°
2026-05-07 11:43 -32.96503 -66.01381 13115 ft 216 kts 234°
2026-05-07 11:44 -32.97473 -66.02766 13220 ft 216 kts 234°
2026-05-07 11:44 -32.98436 -66.04139 13323 ft 215 kts 234°
2026-05-07 11:44 -32.99405 -66.05524 13427 ft 214 kts 234°
2026-05-07 11:44 -33.00354 -66.06880 13529 ft 213 kts 234°
2026-05-07 11:45 -33.01304 -66.08239 13632 ft 212 kts 234°
2026-05-07 11:45 -33.02259 -66.09606 13735 ft 210 kts 234°
2026-05-07 11:45 -33.03194 -66.10944 13836 ft 209 kts 234°
2026-05-07 11:45 -33.04142 -66.12302 13939 ft 208 kts 233°
2026-05-07 11:46 -33.05059 -66.13614 14039 ft 207 kts 233°
2026-05-07 11:46 -33.05983 -66.14938 14141 ft 206 kts 233°
2026-05-07 11:46 -33.06912 -66.16270 14243 ft 206 kts 233°
2026-05-07 11:46 -33.07836 -66.17594 14344 ft 205 kts 233°
2026-05-07 11:47 -33.08750 -66.18905 14445 ft 204 kts 233°
2026-05-07 11:47 -33.09661 -66.20211 14545 ft 203 kts 233°
2026-05-07 11:47 -33.10567 -66.21512 14643 ft 202 kts 233°
2026-05-07 11:47 -33.11473 -66.22810 14741 ft 201 kts 232°
2026-05-07 11:48 -33.12381 -66.24113 14839 ft 201 kts 232°
2026-05-07 11:48 -33.13274 -66.25394 14936 ft 200 kts 232°
2026-05-07 11:48 -33.14164 -66.26668 15033 ft 199 kts 232°
2026-05-07 11:48 -33.15057 -66.27948 15131 ft 198 kts 232°
2026-05-07 11:49 -33.15940 -66.29215 15228 ft 198 kts 232°
2026-05-07 11:49 -33.16823 -66.30482 15325 ft 197 kts 232°
2026-05-07 11:49 -33.17709 -66.31755 15423 ft 196 kts 233°
2026-05-07 11:49 -33.18579 -66.33006 15520 ft 195 kts 233°
2026-05-07 11:50 -33.19455 -66.34265 15617 ft 195 kts 233°
2026-05-07 11:50 -33.20328 -66.35521 15715 ft 194 kts 233°
2026-05-07 11:50 -33.21189 -66.36760 15811 ft 193 kts 233°
2026-05-07 11:50 -33.22044 -66.37991 15908 ft 193 kts 233°
2026-05-07 11:51 -33.22916 -66.39249 16009 ft 194 kts 233°
2026-05-07 11:51 -33.23787 -66.40504 16109 ft 194 kts 233°
2026-05-07 11:51 -33.24655 -66.41756 16208 ft 194 kts 233°
2026-05-07 11:51 -33.25518 -66.43002 16306 ft 194 kts 233°
2026-05-07 11:52 -33.26389 -66.44258 16404 ft 194 kts 233°
2026-05-07 11:52 -33.27259 -66.45514 16502 ft 194 kts 233°
2026-05-07 11:52 -33.28137 -66.46781 16602 ft 194 kts 233°
2026-05-07 11:52 -33.28997 -66.48024 16698 ft 194 kts 233°
2026-05-07 11:53 -33.29861 -66.49271 16796 ft 194 kts 233°
2026-05-07 11:53 -33.30737 -66.50539 16894 ft 193 kts 233°
2026-05-07 11:53 -33.31601 -66.51788 16992 ft 193 kts 233°
2026-05-07 11:53 -33.32453 -66.53019 17087 ft 192 kts 233°
2026-05-07 11:54 -33.33308 -66.54256 17184 ft 192 kts 233°
2026-05-07 11:54 -33.34169 -66.55502 17281 ft 191 kts 233°
2026-05-07 11:54 -33.35031 -66.56749 17379 ft 191 kts 233°
2026-05-07 11:54 -33.35877 -66.57973 17475 ft 190 kts 233°
2026-05-07 11:55 -33.36722 -66.59198 17571 ft 189 kts 233°
2026-05-07 11:55 -33.37577 -66.60437 17668 ft 189 kts 233°
2026-05-07 11:55 -33.38416 -66.61652 17764 ft 188 kts 233°
2026-05-07 11:55 -33.39256 -66.62869 17860 ft 187 kts 233°
2026-05-07 11:56 -33.40086 -66.64073 17955 ft 187 kts 233°
2026-05-07 11:56 -33.40927 -66.65295 18007 ft 189 kts 234°
2026-05-07 11:56 -33.41785 -66.66544 18018 ft 194 kts 234°
2026-05-07 11:56 -33.42669 -66.67764 18017 ft 199 kts 229°
2026-05-07 11:57 -33.43513 -66.69099 18024 ft 200 kts 240°
2026-05-07 11:57 -33.44293 -66.70561 18018 ft 204 kts 242°
2026-05-07 11:57 -33.45076 -66.71992 18017 ft 207 kts 231°
2026-05-07 11:57 -33.46073 -66.73244 18017 ft 210 kts 228°
2026-05-07 11:58 -33.47122 -66.74510 18016 ft 212 kts 228°
2026-05-07 11:58 -33.48187 -66.75795 18015 ft 214 kts 228°
2026-05-07 11:58 -33.49203 -66.77113 18016 ft 214 kts 234°
2026-05-07 11:58 -33.50121 -66.78518 18014 ft 215 kts 234°
2026-05-07 11:59 -33.51062 -66.79942 18014 ft 216 kts 234°
2026-05-07 11:59 -33.52101 -66.81259 18002 ft 218 kts 225°
2026-05-07 11:59 -33.53234 -66.82478 18084 ft 215 kts 225°
2026-05-07 11:59 -33.54303 -66.83697 18086 ft 216 kts 227°
2026-05-07 12:00 -33.55381 -66.85017 18030 ft 217 kts 233°
2026-05-07 12:00 -33.56334 -66.86429 18016 ft 218 kts 234°
2026-05-07 12:00 -33.57304 -66.87867 18014 ft 218 kts 234°
2026-05-07 12:00 -33.58262 -66.89278 18013 ft 219 kts 233°
2026-05-07 12:01 -33.59234 -66.90706 18013 ft 219 kts 233°
2026-05-07 12:01 -33.60207 -66.92133 18013 ft 219 kts 233°
2026-05-07 12:01 -33.61173 -66.93549 18013 ft 219 kts 233°
2026-05-07 12:01 -33.62147 -66.94977 18013 ft 219 kts 233°
2026-05-07 12:02 -33.63137 -66.96426 18013 ft 220 kts 233°
2026-05-07 12:02 -33.64106 -66.97842 18013 ft 220 kts 233°
2026-05-07 12:02 -33.65087 -66.99277 18013 ft 220 kts 234°
2026-05-07 12:02 -33.66062 -67.00705 18013 ft 221 kts 234°
2026-05-07 12:03 -33.67048 -67.02148 18013 ft 221 kts 234°
2026-05-07 12:03 -33.68023 -67.03579 18013 ft 221 kts 234°
2026-05-07 12:03 -33.68997 -67.05009 18013 ft 222 kts 234°
2026-05-07 12:03 -33.69978 -67.06449 18013 ft 222 kts 234°
2026-05-07 12:04 -33.70959 -67.07890 18013 ft 222 kts 235°
2026-05-07 12:04 -33.71944 -67.09336 18013 ft 223 kts 235°
2026-05-07 12:04 -33.72944 -67.10807 18013 ft 223 kts 235°
2026-05-07 12:04 -33.73932 -67.12261 18013 ft 224 kts 236°
2026-05-07 12:05 -33.74923 -67.13719 18013 ft 224 kts 236°
2026-05-07 12:05 -33.75914 -67.15179 18013 ft 225 kts 236°
2026-05-07 12:05 -33.76921 -67.16663 18013 ft 225 kts 236°
2026-05-07 12:05 -33.77920 -67.18135 18013 ft 226 kts 236°
2026-05-07 12:06 -33.78910 -67.19595 18013 ft 227 kts 236°
2026-05-07 12:06 -33.79919 -67.21083 18014 ft 227 kts 236°
2026-05-07 12:06 -33.80928 -67.22575 18014 ft 228 kts 236°
2026-05-07 12:06 -33.81939 -67.24067 18015 ft 228 kts 236°
2026-05-07 12:07 -33.82952 -67.25565 18016 ft 229 kts 236°
2026-05-07 12:07 -33.83955 -67.27046 18017 ft 229 kts 236°
2026-05-07 12:07 -33.84977 -67.28555 18018 ft 229 kts 236°
2026-05-07 12:07 -33.86001 -67.30070 18020 ft 229 kts 236°
2026-05-07 12:08 -33.87007 -67.31558 18021 ft 229 kts 236°
2026-05-07 12:08 -33.88025 -67.33063 18023 ft 230 kts 236°
2026-05-07 12:08 -33.89043 -67.34570 18025 ft 230 kts 236°
2026-05-07 12:08 -33.90051 -67.36061 18028 ft 230 kts 236°
2026-05-07 12:09 -33.91068 -67.37567 18030 ft 230 kts 236°
2026-05-07 12:09 -33.92086 -67.39075 18033 ft 230 kts 236°
2026-05-07 12:09 -33.93105 -67.40585 18036 ft 230 kts 236°
2026-05-07 12:09 -33.94116 -67.42084 18037 ft 230 kts 236°
2026-05-07 12:10 -33.95137 -67.43599 18039 ft 230 kts 236°
2026-05-07 12:10 -33.96149 -67.45100 18040 ft 230 kts 236°
2026-05-07 12:10 -33.97176 -67.46624 18040 ft 230 kts 236°
2026-05-07 12:10 -33.98179 -67.48114 18040 ft 230 kts 236°
2026-05-07 12:11 -33.99200 -67.49631 18040 ft 230 kts 236°
2026-05-07 12:11 -34.00225 -67.51154 18040 ft 230 kts 236°
2026-05-07 12:11 -34.01230 -67.52650 18040 ft 231 kts 236°
2026-05-07 12:11 -34.02258 -67.54179 18040 ft 231 kts 236°
2026-05-07 12:12 -34.03275 -67.55692 18040 ft 231 kts 236°
2026-05-07 12:12 -34.04292 -67.57207 18040 ft 231 kts 236°
2026-05-07 12:12 -34.05296 -67.58702 18040 ft 231 kts 236°
2026-05-07 12:12 -34.06329 -67.60241 18040 ft 231 kts 236°
2026-05-07 12:13 -34.07344 -67.61755 18040 ft 231 kts 236°
2026-05-07 12:13 -34.08349 -67.63253 18040 ft 231 kts 236°
2026-05-07 12:13 -34.09374 -67.64784 18040 ft 231 kts 236°
2026-05-07 12:13 -34.10397 -67.66309 18040 ft 231 kts 237°
2026-05-07 12:14 -34.11402 -67.67812 18039 ft 231 kts 237°
2026-05-07 12:14 -34.12420 -67.69331 18039 ft 230 kts 237°
2026-05-07 12:14 -34.13446 -67.70862 18039 ft 230 kts 236°
2026-05-07 12:14 -34.14460 -67.72372 18039 ft 230 kts 236°
2026-05-07 12:15 -34.15464 -67.73868 18039 ft 230 kts 236°
2026-05-07 12:15 -34.16486 -67.75394 18039 ft 230 kts 237°
2026-05-07 12:15 -34.17501 -67.76914 18039 ft 230 kts 237°
2026-05-07 12:15 -34.18504 -67.78415 18039 ft 230 kts 237°
2026-05-07 12:16 -34.19522 -67.79939 18039 ft 230 kts 237°
2026-05-07 12:16 -34.20539 -67.81464 18039 ft 230 kts 237°
2026-05-07 12:16 -34.21551 -67.82980 18039 ft 230 kts 237°
2026-05-07 12:16 -34.22567 -67.84505 18039 ft 230 kts 237°
2026-05-07 12:17 -34.23569 -67.86009 18039 ft 230 kts 237°
2026-05-07 12:17 -34.24589 -67.87541 18039 ft 230 kts 237°
2026-05-07 12:17 -34.25592 -67.89047 18039 ft 230 kts 237°
2026-05-07 12:17 -34.26593 -67.90552 18039 ft 230 kts 237°
2026-05-07 12:18 -34.27608 -67.92078 18039 ft 230 kts 237°
2026-05-07 12:18 -34.28621 -67.93601 18039 ft 230 kts 237°
2026-05-07 12:18 -34.29644 -67.95140 18039 ft 230 kts 237°
2026-05-07 12:18 -34.30641 -67.96641 18039 ft 230 kts 237°
2026-05-07 12:19 -34.31653 -67.98165 18039 ft 230 kts 237°
2026-05-07 12:19 -34.32657 -67.99679 18039 ft 230 kts 237°
2026-05-07 12:19 -34.33666 -68.01202 18039 ft 230 kts 237°
2026-05-07 12:19 -34.34688 -68.02743 18039 ft 230 kts 237°
2026-05-07 12:20 -34.35684 -68.04247 18039 ft 230 kts 237°
2026-05-07 12:20 -34.36704 -68.05786 18039 ft 230 kts 237°
2026-05-07 12:20 -34.37715 -68.07313 18039 ft 230 kts 237°
2026-05-07 12:20 -34.38714 -68.08822 18039 ft 230 kts 237°
2026-05-07 12:21 -34.39729 -68.10357 18039 ft 230 kts 237°
2026-05-07 12:21 -34.40734 -68.11877 18039 ft 230 kts 237°
2026-05-07 12:21 -34.41738 -68.13395 18039 ft 230 kts 237°
2026-05-07 12:21 -34.42753 -68.14931 18039 ft 230 kts 237°
2026-05-07 12:22 -34.43757 -68.16451 18039 ft 230 kts 237°
2026-05-07 12:22 -34.44773 -68.17991 18039 ft 230 kts 237°
2026-05-07 12:22 -34.45779 -68.19515 18039 ft 230 kts 237°
2026-05-07 12:22 -34.46778 -68.21030 18039 ft 230 kts 237°
2026-05-07 12:23 -34.47809 -68.22594 18039 ft 230 kts 237°
2026-05-07 12:23 -34.48819 -68.24126 18039 ft 230 kts 237°
2026-05-07 12:23 -34.49826 -68.25655 18039 ft 230 kts 237°
2026-05-07 12:23 -34.50829 -68.27177 18039 ft 230 kts 237°
2026-05-07 12:24 -34.51839 -68.28712 18039 ft 231 kts 237°
2026-05-07 12:24 -34.52850 -68.30248 18039 ft 231 kts 237°
2026-05-07 12:24 -34.53853 -68.31774 18039 ft 231 kts 237°
2026-05-07 12:24 -34.54861 -68.33308 18039 ft 231 kts 237°
2026-05-07 12:25 -34.55869 -68.34841 18039 ft 231 kts 237°
2026-05-07 12:25 -34.56879 -68.36378 18039 ft 231 kts 237°
2026-05-07 12:25 -34.57880 -68.37888 18037 ft 232 kts 232°
2026-05-07 12:25 -34.59324 -68.38845 18061 ft 241 kts 195°
2026-05-07 12:26 -34.61029 -68.39079 18045 ft 245 kts 186°
2026-05-07 12:26 -34.62740 -68.39126 18040 ft 246 kts 183°
2026-05-07 12:26 -34.64465 -68.39108 18040 ft 247 kts 182°
2026-05-07 12:26 -34.66182 -68.39056 18039 ft 247 kts 181°
2026-05-07 12:27 -34.67925 -68.38988 18040 ft 247 kts 181°
2026-05-07 12:27 -34.69660 -68.38909 18040 ft 248 kts 180°
2026-05-07 12:27 -34.71384 -68.38825 18040 ft 248 kts 180°
2026-05-07 12:27 -34.73122 -68.38738 18040 ft 248 kts 180°
2026-05-07 12:28 -34.74842 -68.38650 18040 ft 248 kts 180°
2026-05-07 12:28 -34.76586 -68.38560 18040 ft 248 kts 180°
2026-05-07 12:28 -34.78342 -68.38467 18040 ft 248 kts 180°
2026-05-07 12:28 -34.80087 -68.38377 18040 ft 248 kts 180°
2026-05-07 12:29 -34.81799 -68.38288 18040 ft 248 kts 180°
2026-05-07 12:29 -34.83542 -68.38197 18040 ft 248 kts 180°
2026-05-07 12:29 -34.85268 -68.38107 18040 ft 248 kts 180°
2026-05-07 12:29 -34.87030 -68.38014 18040 ft 248 kts 180°
2026-05-07 12:30 -34.88747 -68.37924 18040 ft 248 kts 180°
2026-05-07 12:30 -34.90491 -68.37840 18050 ft 248 kts 173°
2026-05-07 12:30 -34.92230 -68.37828 18043 ft 246 kts 173°
2026-05-07 12:30 -34.93946 -68.37729 18042 ft 243 kts 172°
2026-05-07 12:31 -34.95626 -68.37615 18042 ft 241 kts 172°
2026-05-07 12:31 -34.97321 -68.37507 18042 ft 239 kts 172°
2026-05-07 12:31 -34.98974 -68.37408 18041 ft 237 kts 172°
2026-05-07 12:31 -35.00631 -68.37313 18041 ft 235 kts 172°
2026-05-07 12:32 -35.02274 -68.37221 18041 ft 233 kts 172°
2026-05-07 12:32 -35.03911 -68.37132 18040 ft 231 kts 172°
2026-05-07 12:32 -35.05526 -68.37045 18039 ft 230 kts 172°
2026-05-07 12:32 -35.07108 -68.36961 18039 ft 228 kts 172°
2026-05-07 12:33 -35.10311 -68.36792 18040 ft 226 kts 172°
2026-05-07 12:33 -35.11874 -68.36710 18041 ft 225 kts 172°
2026-05-07 12:33 -35.13447 -68.36626 18042 ft 225 kts 172°
2026-05-07 12:34 -35.15020 -68.36543 18042 ft 224 kts 172°
2026-05-07 12:34 -35.16607 -68.36459 18042 ft 224 kts 172°
2026-05-07 12:34 -35.18157 -68.36376 18042 ft 224 kts 172°
2026-05-07 12:34 -35.19737 -68.36292 18042 ft 224 kts 172°
2026-05-07 12:35 -35.21297 -68.36210 18042 ft 224 kts 172°
2026-05-07 12:35 -35.22866 -68.36127 18042 ft 223 kts 172°
2026-05-07 12:35 -35.24440 -68.36043 18042 ft 223 kts 172°
2026-05-07 12:35 -35.25977 -68.35962 18042 ft 223 kts 172°
2026-05-07 12:36 -35.27568 -68.35877 18042 ft 223 kts 172°
2026-05-07 12:36 -35.29128 -68.35795 18042 ft 223 kts 172°
2026-05-07 12:36 -35.30671 -68.35713 18042 ft 223 kts 172°
2026-05-07 12:36 -35.32227 -68.35631 18042 ft 223 kts 172°
2026-05-07 12:37 -35.33810 -68.35547 18042 ft 223 kts 172°
2026-05-07 12:37 -35.35366 -68.35465 18042 ft 223 kts 172°
2026-05-07 12:37 -35.36945 -68.35381 18042 ft 223 kts 172°
2026-05-07 12:37 -35.38463 -68.35300 18042 ft 223 kts 172°
2026-05-07 12:38 -35.40044 -68.35216 18041 ft 223 kts 172°
2026-05-07 12:38 -35.41583 -68.35134 18042 ft 223 kts 172°
2026-05-07 12:38 -35.43135 -68.35053 18041 ft 223 kts 172°
2026-05-07 12:38 -35.44699 -68.34969 18041 ft 223 kts 172°
2026-05-07 12:39 -35.46268 -68.34886 18041 ft 223 kts 172°
2026-05-07 12:39 -35.47837 -68.34803 18041 ft 223 kts 172°
2026-05-07 12:39 -35.49391 -68.34721 18041 ft 223 kts 172°
2026-05-07 12:39 -35.50951 -68.34637 18041 ft 223 kts 172°
2026-05-07 12:40 -35.52512 -68.34554 18041 ft 223 kts 172°
2026-05-07 12:40 -35.54070 -68.34471 18041 ft 223 kts 172°
2026-05-07 12:40 -35.55626 -68.34388 18041 ft 223 kts 172°
2026-05-07 12:40 -35.57195 -68.34305 18041 ft 223 kts 172°
2026-05-07 12:41 -35.58756 -68.34222 18041 ft 223 kts 172°
2026-05-07 12:41 -35.60305 -68.34139 18041 ft 223 kts 172°
2026-05-07 12:41 -35.61860 -68.34056 18041 ft 223 kts 172°
2026-05-07 12:41 -35.63415 -68.33973 18041 ft 223 kts 172°
2026-05-07 12:42 -35.64968 -68.33890 18041 ft 223 kts 172°
2026-05-07 12:42 -35.66528 -68.33807 18041 ft 223 kts 172°
2026-05-07 12:42 -35.68092 -68.33723 18041 ft 223 kts 172°
2026-05-07 12:42 -35.69674 -68.33639 18041 ft 223 kts 172°
2026-05-07 12:43 -35.71209 -68.33558 18041 ft 223 kts 172°
2026-05-07 12:43 -35.72796 -68.33473 18041 ft 223 kts 172°
2026-05-07 12:43 -35.74342 -68.33391 18059 ft 222 kts 172°
2026-05-07 12:43 -35.75898 -68.33308 18066 ft 222 kts 172°
2026-05-07 12:44 -35.77449 -68.33225 18072 ft 222 kts 172°
2026-05-07 12:44 -35.79002 -68.33141 18077 ft 222 kts 172°
2026-05-07 12:44 -35.80550 -68.33057 18083 ft 222 kts 172°
2026-05-07 12:44 -35.82103 -68.32973 18088 ft 222 kts 172°
2026-05-07 12:45 -35.83656 -68.32890 18093 ft 222 kts 172°
2026-05-07 12:45 -35.85208 -68.32807 18097 ft 222 kts 172°
2026-05-07 12:45 -35.86768 -68.32723 18097 ft 222 kts 172°
2026-05-07 12:45 -35.88325 -68.32639 18097 ft 222 kts 172°
2026-05-07 12:46 -35.89865 -68.32557 18097 ft 222 kts 172°
2026-05-07 12:46 -35.91437 -68.32472 18096 ft 222 kts 172°
2026-05-07 12:46 -35.92993 -68.32389 18096 ft 222 kts 172°
2026-05-07 12:46 -35.94527 -68.32306 18096 ft 222 kts 172°
2026-05-07 12:47 -35.96102 -68.32221 18095 ft 223 kts 172°
2026-05-07 12:47 -35.97660 -68.32137 18095 ft 223 kts 172°
2026-05-07 12:47 -35.99217 -68.32053 18095 ft 223 kts 172°
2026-05-07 12:47 -36.00758 -68.31969 18095 ft 223 kts 172°
2026-05-07 12:48 -36.02347 -68.31884 18096 ft 223 kts 172°
2026-05-07 12:48 -36.03895 -68.31800 18099 ft 222 kts 172°
2026-05-07 12:48 -36.05436 -68.31717 18101 ft 222 kts 172°
2026-05-07 12:48 -36.07018 -68.31632 18104 ft 222 kts 172°
2026-05-07 12:49 -36.08561 -68.31548 18106 ft 222 kts 172°
2026-05-07 12:49 -36.10130 -68.31464 18109 ft 222 kts 172°
2026-05-07 12:49 -36.11682 -68.31379 18113 ft 222 kts 172°
2026-05-07 12:49 -36.13239 -68.31294 18116 ft 222 kts 172°
2026-05-07 12:50 -36.14804 -68.31210 18119 ft 222 kts 172°
2026-05-07 12:50 -36.16345 -68.31126 18122 ft 223 kts 172°
2026-05-07 12:50 -36.17919 -68.31041 18123 ft 223 kts 172°
2026-05-07 12:50 -36.19477 -68.30956 18123 ft 223 kts 172°
2026-05-07 12:51 -36.21046 -68.30871 18123 ft 223 kts 172°
2026-05-07 12:51 -36.22603 -68.30787 18123 ft 223 kts 172°
2026-05-07 12:51 -36.24160 -68.30702 18123 ft 223 kts 172°
2026-05-07 12:51 -36.25724 -68.30618 18123 ft 223 kts 172°
2026-05-07 12:52 -36.27303 -68.30532 18123 ft 223 kts 172°
2026-05-07 12:52 -36.28856 -68.30448 18123 ft 223 kts 172°
2026-05-07 12:52 -36.30431 -68.30363 18123 ft 223 kts 172°
2026-05-07 12:52 -36.31992 -68.30277 18123 ft 223 kts 172°
2026-05-07 12:53 -36.33552 -68.30193 18123 ft 223 kts 172°
2026-05-07 12:53 -36.35119 -68.30107 18122 ft 223 kts 172°
2026-05-07 12:53 -36.36675 -68.30022 18123 ft 223 kts 172°
2026-05-07 12:53 -36.38235 -68.29938 18122 ft 223 kts 172°
2026-05-07 12:54 -36.39820 -68.29851 18122 ft 223 kts 172°
2026-05-07 12:54 -36.41372 -68.29767 18122 ft 223 kts 172°
2026-05-07 12:54 -36.42938 -68.29681 18122 ft 223 kts 172°
2026-05-07 12:54 -36.44515 -68.29595 18122 ft 223 kts 172°
2026-05-07 12:55 -36.46053 -68.29511 18122 ft 223 kts 172°
2026-05-07 12:55 -36.47620 -68.29426 18122 ft 223 kts 172°
2026-05-07 12:55 -36.49208 -68.29340 18122 ft 223 kts 172°
2026-05-07 12:55 -36.50749 -68.29256 18122 ft 223 kts 172°
2026-05-07 12:56 -36.52314 -68.29170 18122 ft 223 kts 172°
2026-05-07 12:56 -36.53886 -68.29084 18122 ft 223 kts 172°
2026-05-07 12:56 -36.55444 -68.28999 18122 ft 223 kts 172°
2026-05-07 12:56 -36.57026 -68.28912 18122 ft 223 kts 172°
2026-05-07 12:57 -36.58578 -68.28828 18121 ft 222 kts 172°
2026-05-07 12:57 -36.60135 -68.28743 18121 ft 221 kts 172°
2026-05-07 12:57 -36.61684 -68.28658 18121 ft 220 kts 172°
2026-05-07 12:57 -36.63232 -68.28573 18121 ft 219 kts 172°
2026-05-07 12:58 -36.64778 -68.28488 18121 ft 219 kts 172°
2026-05-07 12:58 -36.66295 -68.28404 18121 ft 218 kts 172°
2026-05-07 12:58 -36.67827 -68.28320 18121 ft 218 kts 172°
2026-05-07 12:58 -36.69360 -68.28236 18121 ft 217 kts 172°
2026-05-07 12:59 -36.70882 -68.28153 18121 ft 217 kts 172°
2026-05-07 12:59 -36.72411 -68.28068 18121 ft 217 kts 172°
2026-05-07 12:59 -36.73924 -68.27985 18121 ft 216 kts 172°
2026-05-07 12:59 -36.75456 -68.27900 18121 ft 216 kts 172°
2026-05-07 13:00 -36.76968 -68.27817 18121 ft 216 kts 172°
2026-05-07 13:00 -36.78470 -68.27734 18121 ft 216 kts 172°
2026-05-07 13:00 -36.80003 -68.27650 18121 ft 216 kts 172°
2026-05-07 13:00 -36.81511 -68.27567 18119 ft 216 kts 172°
2026-05-07 13:01 -36.83038 -68.27483 18116 ft 216 kts 172°
2026-05-07 13:01 -36.84558 -68.27399 18112 ft 216 kts 172°
2026-05-07 13:01 -36.86074 -68.27315 18107 ft 216 kts 172°
2026-05-07 13:01 -36.87601 -68.27231 18103 ft 216 kts 172°
2026-05-07 13:02 -36.89114 -68.27148 18099 ft 216 kts 172°
2026-05-07 13:02 -36.90629 -68.27064 18095 ft 217 kts 172°
2026-05-07 13:02 -36.92154 -68.26980 18090 ft 217 kts 172°
2026-05-07 13:02 -36.93677 -68.26896 18086 ft 217 kts 172°
2026-05-07 13:03 -36.95193 -68.26812 18081 ft 217 kts 172°
2026-05-07 13:03 -36.96718 -68.26728 18075 ft 217 kts 172°
2026-05-07 13:03 -36.98246 -68.26646 18071 ft 218 kts 172°
2026-05-07 13:03 -36.99772 -68.26562 18068 ft 219 kts 171°
2026-05-07 13:04 -37.01291 -68.26475 18065 ft 221 kts 171°
2026-05-07 13:04 -37.02869 -68.26381 18062 ft 223 kts 172°
2026-05-07 13:04 -37.04424 -68.26260 18043 ft 227 kts 177°
2026-05-07 13:04 -37.06019 -68.26097 18060 ft 228 kts 181°
2026-05-07 13:05 -37.07608 -68.26024 18057 ft 230 kts 183°
2026-05-07 13:05 -37.09231 -68.25960 18053 ft 231 kts 183°
2026-05-07 13:05 -37.10865 -68.25893 18047 ft 231 kts 183°
2026-05-07 13:05 -37.12496 -68.25823 18042 ft 230 kts 183°
2026-05-07 13:06 -37.14084 -68.25748 18038 ft 230 kts 183°
2026-05-07 13:06 -37.15709 -68.25665 18038 ft 229 kts 182°
2026-05-07 13:06 -37.17306 -68.25580 18038 ft 228 kts 183°
2026-05-07 13:06 -37.18914 -68.25494 18038 ft 228 kts 182°
2026-05-07 13:07 -37.20485 -68.25408 18038 ft 228 kts 182°
2026-05-07 13:07 -37.22094 -68.25320 18038 ft 227 kts 183°
2026-05-07 13:07 -37.23699 -68.25233 18038 ft 227 kts 183°
2026-05-07 13:07 -37.25271 -68.25146 18038 ft 227 kts 183°
2026-05-07 13:08 -37.26862 -68.25059 18038 ft 227 kts 182°
2026-05-07 13:08 -37.28450 -68.24970 18038 ft 227 kts 182°
2026-05-07 13:08 -37.30021 -68.24880 18039 ft 227 kts 182°
2026-05-07 13:08 -37.31627 -68.24787 18039 ft 227 kts 182°
2026-05-07 13:09 -37.33223 -68.24697 18039 ft 226 kts 182°
2026-05-07 13:09 -37.34810 -68.24607 18039 ft 226 kts 182°
2026-05-07 13:09 -37.36389 -68.24519 18039 ft 226 kts 182°
2026-05-07 13:09 -37.37951 -68.24432 18038 ft 226 kts 183°
2026-05-07 13:10 -37.39558 -68.24346 18038 ft 226 kts 183°
2026-05-07 13:10 -37.41129 -68.24262 18038 ft 226 kts 183°
2026-05-07 13:10 -37.42728 -68.24174 18038 ft 226 kts 183°
2026-05-07 13:10 -37.44326 -68.24086 18038 ft 226 kts 183°
2026-05-07 13:11 -37.45894 -68.23999 18039 ft 226 kts 183°
2026-05-07 13:11 -37.47469 -68.23910 18039 ft 226 kts 183°
2026-05-07 13:11 -37.49062 -68.23822 18038 ft 226 kts 183°
2026-05-07 13:11 -37.50653 -68.23734 18038 ft 226 kts 183°
2026-05-07 13:12 -37.52247 -68.23644 18039 ft 226 kts 183°
2026-05-07 13:12 -37.53830 -68.23555 18039 ft 226 kts 183°
2026-05-07 13:12 -37.55414 -68.23467 18039 ft 226 kts 183°
2026-05-07 13:12 -37.57006 -68.23377 18039 ft 226 kts 182°
2026-05-07 13:13 -37.58593 -68.23288 18039 ft 227 kts 182°
2026-05-07 13:13 -37.60162 -68.23199 18039 ft 227 kts 182°
2026-05-07 13:13 -37.61760 -68.23109 18039 ft 227 kts 183°
2026-05-07 13:13 -37.63351 -68.23020 18039 ft 227 kts 182°
2026-05-07 13:14 -37.64926 -68.22932 18039 ft 226 kts 182°
2026-05-07 13:14 -37.66503 -68.22842 18039 ft 226 kts 182°
2026-05-07 13:14 -37.68106 -68.22750 18039 ft 226 kts 182°
2026-05-07 13:14 -37.69694 -68.22660 18039 ft 226 kts 183°
2026-05-07 13:15 -37.71256 -68.22572 18039 ft 226 kts 183°
2026-05-07 13:15 -37.72844 -68.22482 18039 ft 226 kts 183°
2026-05-07 13:15 -37.74447 -68.22392 18039 ft 226 kts 182°
2026-05-07 13:15 -37.76023 -68.22304 18039 ft 227 kts 183°
2026-05-07 13:16 -37.77616 -68.22214 18039 ft 227 kts 182°
2026-05-07 13:16 -37.79214 -68.22124 18039 ft 227 kts 182°
2026-05-07 13:16 -37.80806 -68.22034 18039 ft 227 kts 182°
2026-05-07 13:16 -37.82387 -68.21944 18039 ft 227 kts 182°
2026-05-07 13:17 -37.83967 -68.21855 18039 ft 227 kts 182°
2026-05-07 13:17 -37.85575 -68.21764 18039 ft 227 kts 182°
2026-05-07 13:17 -37.87161 -68.21674 18039 ft 227 kts 182°
2026-05-07 13:17 -37.88744 -68.21585 18039 ft 227 kts 182°
2026-05-07 13:18 -37.90334 -68.21497 17956 ft 231 kts 182°
2026-05-07 13:18 -37.91965 -68.21406 17937 ft 231 kts 182°
2026-05-07 13:18 -37.93610 -68.21314 17782 ft 237 kts 182°
2026-05-07 13:18 -37.95293 -68.21219 17635 ft 241 kts 182°
2026-05-07 13:19 -37.96976 -68.21123 17490 ft 245 kts 182°
2026-05-07 13:19 -37.98711 -68.21021 17341 ft 248 kts 181°
2026-05-07 13:19 -38.00459 -68.20920 17192 ft 250 kts 181°
2026-05-07 13:19 -38.02216 -68.20822 17043 ft 252 kts 181°
2026-05-07 13:20 -38.03968 -68.20723 16894 ft 253 kts 181°
2026-05-07 13:20 -38.05779 -68.20620 16741 ft 255 kts 181°
2026-05-07 13:20 -38.07552 -68.20520 16592 ft 256 kts 181°
2026-05-07 13:20 -38.09338 -68.20420 16442 ft 256 kts 181°
2026-05-07 13:21 -38.11142 -68.20319 16290 ft 257 kts 181°
2026-05-07 13:21 -38.12947 -68.20215 16138 ft 258 kts 181°
2026-05-07 13:21 -38.14777 -68.20111 15984 ft 258 kts 181°
2026-05-07 13:21 -38.16584 -68.20008 15831 ft 259 kts 180°
2026-05-07 13:22 -38.18396 -68.19905 15679 ft 259 kts 180°
2026-05-07 13:22 -38.20206 -68.19801 15527 ft 259 kts 180°
2026-05-07 13:22 -38.22032 -68.19698 15374 ft 260 kts 180°
2026-05-07 13:22 -38.23851 -68.19594 15222 ft 260 kts 180°
2026-05-07 13:23 -38.25666 -68.19491 15071 ft 260 kts 180°
2026-05-07 13:23 -38.27507 -68.19386 14917 ft 261 kts 180°
2026-05-07 13:23 -38.29316 -68.19282 14766 ft 261 kts 180°
2026-05-07 13:23 -38.31152 -68.19178 14613 ft 261 kts 180°
2026-05-07 13:24 -38.32980 -68.19074 14461 ft 261 kts 180°
2026-05-07 13:24 -38.34803 -68.18969 14309 ft 261 kts 179°
2026-05-07 13:24 -38.36642 -68.18864 14156 ft 261 kts 179°
2026-05-07 13:24 -38.38450 -68.18760 14006 ft 261 kts 179°
2026-05-07 13:25 -38.40292 -68.18654 13852 ft 261 kts 179°
2026-05-07 13:25 -38.42121 -68.18549 13699 ft 260 kts 179°
2026-05-07 13:25 -38.43939 -68.18443 13546 ft 260 kts 178°
2026-05-07 13:25 -38.45711 -68.17906 13391 ft 261 kts 162°
2026-05-07 13:26 -38.47395 -68.17120 13241 ft 261 kts 160°
2026-05-07 13:26 -38.49113 -68.16260 13087 ft 261 kts 159°
2026-05-07 13:26 -38.50808 -68.15385 12935 ft 261 kts 159°
2026-05-07 13:26 -38.52507 -68.14500 12783 ft 260 kts 159°
2026-05-07 13:27 -38.54193 -68.13621 12632 ft 260 kts 159°
2026-05-07 13:27 -38.55881 -68.12740 12480 ft 260 kts 159°
2026-05-07 13:27 -38.57575 -68.11856 12328 ft 260 kts 159°
2026-05-07 13:27 -38.59240 -68.10986 12178 ft 259 kts 158°
2026-05-07 13:28 -38.60927 -68.10104 12026 ft 259 kts 158°
2026-05-07 13:28 -38.62615 -68.09221 11874 ft 259 kts 158°
2026-05-07 13:28 -38.64294 -68.08342 11723 ft 259 kts 158°
2026-05-07 13:28 -38.65975 -68.07462 11571 ft 259 kts 158°
2026-05-07 13:29 -38.67649 -68.06585 11420 ft 259 kts 158°
2026-05-07 13:29 -38.69315 -68.05712 11270 ft 259 kts 158°
2026-05-07 13:29 -38.70995 -68.04832 11118 ft 259 kts 158°
2026-05-07 13:29 -38.72683 -68.03947 10966 ft 259 kts 158°
2026-05-07 13:30 -38.74347 -68.03073 10816 ft 259 kts 158°
2026-05-07 13:30 -38.76037 -68.02186 10663 ft 259 kts 159°
2026-05-07 13:30 -38.77712 -68.01305 10512 ft 259 kts 159°
2026-05-07 13:30 -38.79371 -68.00435 10363 ft 259 kts 159°
2026-05-07 13:31 -38.81064 -67.99543 10210 ft 259 kts 159°
2026-05-07 13:31 -38.82746 -67.98658 10059 ft 259 kts 159°
2026-05-07 13:31 -38.84417 -67.97781 9818 ft 254 kts 159°
2026-05-07 13:31 -38.86010 -67.96943 9453 ft 245 kts 159°
2026-05-07 13:32 -38.87568 -67.96117 9080 ft 230 kts 159°
2026-05-07 13:32 -38.88994 -67.95362 8706 ft 214 kts 159°
2026-05-07 13:32 -38.90333 -67.94652 8333 ft 200 kts 159°
2026-05-07 13:32 -38.91592 -67.93984 7963 ft 189 kts 159°
2026-05-07 13:33 -38.92799 -67.93347 7541 ft 183 kts 159°
2026-05-07 13:33 -38.94030 -67.93252 7094 ft 176 kts 204°
2026-05-07 13:33 -38.94881 -67.94292 6662 ft 169 kts 250°
2026-05-07 13:33 -38.94992 -67.95673 6369 ft 147 kts 272°
2026-05-07 13:34 -38.94964 -67.96952 5834 ft 140 kts 271°
2026-05-07 13:34 -38.94939 -67.99321 4793 ft 127 kts 271°
2026-05-07 13:34 -38.94932 -68.00423 4280 ft 122 kts 270°
2026-05-07 13:35 -38.94924 -68.01508 3764 ft 119 kts 269°
2026-05-07 13:35 -38.94923 -68.02548 3258 ft 116 kts 270°
2026-05-07 13:35 -38.94924 -68.03528 2793 ft 112 kts 270°
2026-05-07 13:35 -38.94917 -68.04439 2512 ft 120 kts 265°
2026-05-07 13:36 -38.95086 -68.05665 2550 ft 152 kts 261°
2026-05-07 13:36 -38.95079 -68.07073 2711 ft 162 kts 276°
2026-05-07 13:36 -38.94974 -68.08619 2467 ft 182 kts 275°
2026-05-07 13:36 -38.94909 -68.10120 1866 ft 151 kts 270°
2026-05-07 13:37 -38.94941 -68.11433 1440 ft 144 kts 268°
2026-05-07 13:37 -38.94941 -68.12713 1140 ft 137 kts 269°
2026-05-07 13:37 -38.94910 -68.13872 944 ft 122 kts 268°
2026-05-07 13:37 -38.94906 -68.14901 893 ft 104 kts 269°
2026-05-07 13:38 -38.94908 -68.15585 894 ft 56 kts 271°
2026-05-07 13:38 -38.94894 -68.15910 894 ft 23 kts 265°
2026-05-07 13:38 -38.94901 -68.16030 895 ft 5 kts 245°
2026-05-07 13:38 -38.94910 -68.15990 894 ft 8 kts 84°
2026-05-07 13:39 -38.94905 -68.15891 894 ft 12 kts 88°
2026-05-07 13:39 -38.94901 -68.15778 894 ft 12 kts 87°
2026-05-07 13:39 -38.94903 -68.15665 894 ft 12 kts 94°
2026-05-07 13:39 -38.94906 -68.15545 894 ft 14 kts 89°
2026-05-07 13:40 -38.94906 -68.15404 894 ft 16 kts 89°
2026-05-07 13:40 -38.94904 -68.15251 894 ft 17 kts 88°
2026-05-07 13:40 -38.94931 -68.15101 894 ft 17 kts 130°
2026-05-07 13:40 -38.94985 -68.15029 894 ft 3 kts 133°
2026-05-07 13:41 -38.95018 -68.14984 894 ft 10 kts 134°
2026-05-07 13:41 -38.95083 -68.14904 892 ft 15 kts 122°
2026-05-07 13:41 -38.95094 -68.14751 891 ft 18 kts 91°
2026-05-07 13:41 -38.95094 -68.14583 891 ft 18 kts 91°
2026-05-07 13:42 -38.95095 -68.14411 891 ft 19 kts 91°
2026-05-07 13:42 -38.95095 -68.14259 891 ft 12 kts 88°
2026-05-07 13:42 -38.95095 -68.14186 891 ft 2 kts 88°
2026-05-07 13:42 -38.95095 -68.14150 891 ft 5 kts 94°
2026-05-07 13:43 -38.95099 -68.14083 891 ft 9 kts 94°
2026-05-07 13:43 -38.95099 -68.14012 891 ft 8 kts 85°
2026-05-07 13:43 -38.95098 -68.13965 890 ft 2 kts 114°
2026-05-07 13:43 -38.95100 -68.13947 890 ft 3 kts 81°
2026-05-07 13:44 -38.95098 -68.13925 890 ft 1 kts 101°
2026-05-07 13:44 -38.95101 -68.13919 890 ft 0 kts 146°
2026-05-07 13:44 -38.95102 -68.13917 889 ft 0 kts 160°
2026-05-07 13:44 -38.95110 -68.13925 890 ft 0 kts 263°
2026-05-07 13:45 -38.95110 -68.13928 890 ft 0 kts 252°
2026-05-07 13:45 -38.95110 -68.13930 890 ft 0 kts 261°